Regional Weather Roundup
Issued by NWS

Home | Current Version | Previous Version | Graphics & Text | Print | Product List | Glossary On
Versions: 1 2 3 4 5 6 7 8 9 10 11 12 13 14 15 16 17 18 19 20 21 22 23 24 25 26 27 28 29 30 31 32 33 34 35 36 37 38 39 40 41 42 43 44 45 46 47 48 49 50
000
ASUS43 KOAX 271410
RWRNE

WEATHER ROUNDUP FOR NEBRASKA
NATIONAL WEATHER SERVICE OMAHA NE
800 AM CST SAT DEC 27 2014

NOTES: SATELLITE DATA IS BEING USED TO AUGMENT CLOUD COVER ABOVE
       12000 FEET.
       "FAIR" INDICATES FEW OR NO CLOUDS BELOW 12,000 FEET WITH NO
       SIGNIFICANT WEATHER AND/OR OBSTRUCTIONS TO VISIBILITY.

  * THESE STATIONS DO NOT REPORT WEATHER SUCH AS RAIN...SNOW OR FOG.

NEZ001>004-019>022-054>056-271500-
NEBRASKA PANHANDLE

CITY           SKY/WX    TMP DP  RH WIND       PRES   REMARKS
SCOTTSBLUFF    CLEAR      1  -2  87 NW10      30.16R WCI -15
ALLIANCE       PTCLDY    -8 -12  83 SW6       30.12S WCI -21
CHADRON        CLOUDY     8   4  83 SW9       30.15S WCI  -5
KIMBALL        PTCLDY     8   1  73 W15       30.10R WCI -10
SIDNEY         PTCLDY     2  -4  76 W14       30.14R WCI -16
$$

NEZ057>060-069>072-079>082-271500-
SOUTHWEST NEBRASKA

CITY           SKY/WX    TMP DP  RH WIND       PRES   REMARKS
NORTH PLATTE   PTCLDY    -8 -11  86 NW8       30.19R WCI -24
IMPERIAL       PTCLDY     4   0  83 W9        30.20R WCI -10
LEXINGTON      PTCLDY     4   1  88 SW3       30.23R FOG
MCCOOK         PTCLDY     6   3  87 W12       30.26R WCI  -9
OGALLALA       CLEAR      5   3  91 SW3       30.18R
$$

NEZ005>010-023>029-035>040-094-271500-
NORTH CENTRAL NEBRASKA

CITY           SKY/WX    TMP DP  RH WIND       PRES   REMARKS
VALENTINE      CLEAR      1  -3  83 SW9       30.16S WCI -14
AINSWORTH      CLEAR      4   1  88 W5        30.15F WCI  -5
BROKEN BOW     PTCLDY    11   6  81 W8        30.18R WCI  -1
O`NEILL        CLEAR     10   9  95 W7        30.17S WCI   0
ORD            CLEAR      5   3  91 W5        30.19R WCI  -4
THEDFORD       PTCLDY     3   0  90 W6        30.16S WCI  -8
$$

NEZ041-046>049-061>064-073>077-083>087-271500-
SOUTH CENTRAL NEBRASKA

CITY           SKY/WX    TMP DP  RH WIND       PRES   REMARKS
GRAND ISLAND   PTCLDY     8   5  87 W9        30.24R WCI  -5
AURORA         CLEAR     10   8  90 W9        30.22R WCI  -3
HASTINGS       PTCLDY     8   5  87 W8        30.22R WCI  -4
HEBRON         CLEAR     16  12  83 W5        30.26R WCI   9
HOLDREGE       PTCLDY    10   6  87 W6        30.25R WCI   0
KEARNEY *      PTCLDY     9   3  78 SW8       30.25R WCI  -4
YORK           CLEAR     14  10  85 NW10      30.22S WCI   1
$$

NEZ011>018-030>034-042>045-271500-
NORTHEAST NEBRASKA

CITY           SKY/WX    TMP DP  RH WIND       PRES   REMARKS
NORFOLK        CLEAR     12   9  87 NW8       30.19R WCI   0
ALBION         PTCLDY    10   6  86 NW6       30.19S WCI   0
BLAIR          CLEAR     20  16  84 NW10G17   30.17R WCI   8
COLUMBUS *     CLEAR     14   3  62 NW9       30.21S WCI   2
FREMONT        CLEAR     17  13  86 W10       30.20F WCI   4
TEKAMAH        CLEAR     19  14  81 NW16      30.20R WCI   4
WAYNE          CLEAR     11   8  86 NW8       30.20R WCI  -1
$$

NEZ050>053-065>068-078-088>093-271500-
SOUTHEAST NEBRASKA

CITY           SKY/WX    TMP DP  RH WIND       PRES   REMARKS
LINCOLN        CLEAR     18  14  84 NW10      30.24R WCI   6
OMAHA EPPLEY   MOCLDY    22  18  85 NW10      30.21R WCI  11
BEATRICE       PTCLDY    19  15  86 NW10      30.24R WCI   7
FALLS CITY     CLOUDY    26  20  77 NW15      30.22R WCI  14
NEBRASKA CITY  CLOUDY    23  21  91 NW10      30.22R WCI  12
PLATTSMOUTH    PTCLDY    21  18  86 NW10      30.20R WCI  10
$$

NEZ044-045-051>053-067-271500-
OMAHA AREA

CITY           SKY/WX    TMP DP  RH WIND       PRES   REMARKS
OMAHA EPPLEY   MOCLDY    22  18  85 NW10      30.21R WCI  11
BLAIR          CLEAR     20  16  84 NW10G17   30.17R WCI   8
FREMONT        CLEAR     17  13  86 W10       30.20F WCI   4
MILLARD        CLEAR     21  17  82 NW7       30.21S WCI  13
OFFUTT AFB     CLEAR     22  17  82 NW8       30.20R WCI  12
PLATTSMOUTH    PTCLDY    21  18  86 NW10      30.20R WCI  10
WAHOO          FAIR      18  13  82 NW12      30.21R WCI   5
$$


USA.gov is the U.S. government's official web portal to all federal, state and local government web resources and services.